Race Results for
Cantua Creek Road Race
Coalinga, CA
(Event Information)
View By:
Road Race on 02/16/2008

Note: Ranking points are NOT upgrade points. An explanation of ranking points can be found here.


Men - Pro/Cat 1/2

 Place Points NameCity, StateTime USAC #BibTeam
1540.00Brian Cook   Santa Barbara, CA00:00:00.00 206040  Platinum Performance Cycling T
2548.33Gary Douville   Santa Barbara, CA00:00:00.00 101476  Platinum Racing Team
3556.67Mark Shimahara   Ventura, CA00:00:00.00 32481  13 Unattached
4565.00Paul Kronser   San Luis Obipso, CA00:00:00.00 180954  10 Great Dane Velo Club (GDVC)
5573.33Maurice Harper (1 - Cat2)   San Francisco, CA00:00:00.00 181872  Godspeed Courier
6581.67Elliot Jaramillo   Burlingame, CA00:00:00.00 179930  BPG/Montano Velo
7590.00Christopher Coble   San Francisco, CA00:00:00.00 220196  Los Gatos Bicycle Racing Club
DNPUNKNOWN RIDER   00:00:00.00  
DNPJenson Lee   Saratoga, CA00:00:00.00 212393  11 Velo Club La Grange Westwood
DNPEric Balfus   Los Gatos, CA00:00:00.00 690  12 Unattached

Men - Cat 1/2/3 - Master - 35-99

 Place Points NameCity, StateTime USAC #BibTeam
1508.41Robert Crain   Rancho Cucamonga, CA00:00:00.00 183270  309 Blue Rain
2513.85Nick Theobald   Burlingame, CA00:00:00.00 35297  306 SJBC/ Sugar CRM
3519.29Roger Bennett   San Carlos, CA00:00:00.00 197734  313 Morgan Stanley
4524.73Dan Martin   Pleasanton, CA00:00:00.00 179386  303 VOS Racing
5530.17Ken Calender   Salinas, CA00:00:00.00 115342  302 Joslyn's Bikes
6535.61Greg Bloom   Hollister, CA00:00:00.00 3982  315 San Jose Bicycle Club
7541.05Douglas Philippone   Washington, DC00:00:00.00 42635  304 Don Chapin/MBRT
8546.49Matthew Rozek   Folsom, CA00:00:00.00 154826  310 specialized/Sierra Nevada
9551.93Lucas Paz   Richmond, CA00:00:00.00 150305  308 East Bay Velo Club
10557.37Jeff Poulsen   Arnold, CA00:00:00.00 28533  312 VOS Racing
11562.80Jeff Albert   Reno, NV00:00:00.00 235063  300 Liquid Cycling/Reno Racing
12568.24Richard Del Valle   San Jose, CA00:00:00.00 9150  316 Morgan Stanley Cycling Team
13573.68Shawn Oliver   St. Helena, CA00:00:00.00 46241  314 Morgan Stanley Cycling Team
14579.12Scott Thor   Bakersfield, CA00:00:00.00 189065  307 Stark Velo
15584.56Shaun Bagley   Visalia, CA00:00:00.00 60730  301 Cental Valley Cycling
16590.00Matt Britter   Fresno, CA00:00:00.00 195228  311 Sierra Pacific Racing
DNPGregory Pike   Salinas, CA00:00:00.00 158350  305 VOS Racing

Men - Cat 1/2/3 - Master - 45-99

 Place Points NameCity, StateTime USAC #BibTeam
1540.00Jonathan Laine   Truckee, CA00:00:00.00 256153  522 Specialized/Sierra Nevada
2541.52Dean Knudsen   Pacific Grove, CA00:00:00.00 74410  521 MBRT Don Chapin
3543.03John Barry   Madera, CA00:00:00.00 219125  502 Action Sports/SSC Cycling Team
4544.55Steven Grusis   Madera, CA00:00:00.00 60756  517 Action Sports/SSC Racing Team
5546.06Lauraleen Fenech   San Francisco, CA00:00:00.00 224272  511 Team Walthour/Rocket Fitness
6547.58Paul Gossi   Reno, NV00:00:00.00 13762  515 Liquid Fitness Reno Racing
7549.09Alan Nielson   Dublin, CA00:00:00.00 236183  528 Wells Fargo Racing Team
8550.61Brian McCleary   Sacramento, CA00:00:00.00 109066  523 PACIFIC SUPPLY
9552.12Dennis Pedersen   Santa Cruz, CA00:00:00.00 126404  530 Team Bicycle Trip
10553.64Richard Shields   Fremont, CA00:00:00.00 140693  537 Hammer Nutrition
11555.15Steven Mielich   San Jose, CA00:00:00.00 136178  524 SJBC/SugarCRM
12556.67Kevin Willitts   S Lake Tahoe, CA00:00:00.00 192774  541 Alta Alpina Cycling Club
13558.18Jan Huptych   San Mateo, CA00:00:00.00 86954  519 NA
14559.70Leon Pitts   Carmel, CA00:00:00.00 213367  531 VOS Racing
15561.21Mario Reyes   Bakersfield, CA00:00:00.00 54095  534 action sports
16562.73Roland Freund   Davis, CA00:00:00.00 226676  512 Davis Bike Club
17564.24Earle Baker   San Jose, CA00:00:00.00 204436  500 TBS Racing
18565.76Thomas Coulter   Rocklin, CA00:00:00.00 74102  509 Morgan Stanley/24 Hr Fitness/S
19567.27John Zunino   Arnold, CA00:00:00.00 196757  544 Pacific State Bank Cycling Tea
20568.79Jess Raphael   Napa, CA00:00:00.00 221460  532 VOS Racing
21570.30Tony Reid   Sacramento, CA00:00:00.00 29458  533 VOS Racing
22571.82Tracy Muegge   Gold River, CA00:00:00.00 51637  525 Rio Strade - Sacramento
23573.33Scott Calley   Monterey, CA00:00:00.00 195999  507 VOS Racing
24574.85robert nichols   Lockeford, CA00:00:00.00 255632  527 Pacific State Bank cycling tea
26576.36Franz Broz   Pebble Beach, CA00:00:00.00 155801  505 VOS Racing
27577.88Michael Camarena   Lindsay, CA00:00:00.00 47386  508 Action Sports/SSC
28579.39Steven Gile   Salinas, CA00:00:00.00 98978  514 VOS racing
29580.91James Pappe   Bakersfield, CA00:00:00.00 94207  529 Action Sports
30582.42Eric Robertson   Visalia, CA00:00:00.00 58116  535 Sierra Bicycle Werks
31583.94Martin Wolff   Carmel, CA00:00:00.00 203646  543 VOS Racing
32585.45Albert Barreto   Monterey, CA00:00:00.00 195743  501 VOS Racing
33586.97Stephen Gregorios   Long Beach, CA00:00:00.00 135047  516 Morgan Stanley 24 Fitness Spec
34588.48Matthew Sundt   Monterey, CA00:00:00.00 184752  538 VOS Racing
35590.00Andy Gee   Danville, CA00:00:00.00 53644  513 
DNPUNKNOWN RIDER   00:00:00.00  520 
DNPPatricia Bell   San Luis Obispo, CA00:00:00.00 72039  503 Morgan Stanley
DNPChris Black   San Luis Obispo, CA00:00:00.00 3814  504 Morgan Stanley
DNPMorgan Caldwell   Lafayette, CA00:00:00.00 55374  506 Morgan Stanley/24 Hr Fitness
DNPMichael Deusebio   Danville, CA00:00:00.00 9335  510 morgan stanley cycling team
DNPLarry Hampson   Marina, CA00:00:00.00 49323  518 VOS Racing
DNPLance Newey   Fair Oaks, CA00:00:00.00 202161  526 Specialized/Sierra Nevada
DNPAlan Rowland   Davis, CA00:00:00.00 56017  536 davis bike club
DNPStanley Terusaki   Livermore, CA00:00:00.00 35241  539 morgan stanley/24 hr fitness/s
DNPFrank Winters   Susanville, CA00:00:00.00 54032  542 Reno Wheelmen

Men - Cat 3

 Place Points NameCity, StateTime USAC #BibTeam
1540.00Blake Anton   Arroyo Grande, CA00:00:00.00 192686  147 Davis Bike Club
2541.25Jason Hannon   Santa Ynez, CA00:00:00.00 167360  114 Platinum Performance Cycling T
3542.50Patrick Healy   Altadena, CA00:00:00.00 222913  115 UC Santa Barbara
4543.75Daniel Lam   Kalamazoo, MI00:00:00.00 239504  123 TBS Racing
5545.00Nicholas Martinez   Santa Barbara, CA00:00:00.00 234922  125 UCSB Cycling
6546.25Matthew Carinio   San Luis Obispo, CA00:00:00.00 6109  103 Easton/SugarCRM/Specialized
7547.50Nils Johnson   Davis, CA00:00:00.00 196328  120 Specialized/Sierra Nevada
8548.75James Wingert   San Diego, CA00:00:00.00 256481  142 Davis Bike Club
9550.00Michael Holt   Morgan Hill, CA00:00:00.00 75334  118 TBS Racing
10UNKNOWN RIDER   00:00:00.00  138 
11552.50Michael Vella   Saratoga, CA00:00:00.00 167402  139 Webcor / Alto Velo
12553.75Robert Raymond   Hayward, CA00:00:00.00 200414  132 InfoVista Cycling Team
13555.00Lee Shuemake   Sonora, CA00:00:00.00 197770  135 Pacific State Bank Cycling Tea
14556.25Ron Castia   Livermore, CA00:00:00.00 144264  104 InfoVista Cycling Team
15557.50Steven Smith   Santa Barbara, CA00:00:00.00 67527  137 Platinum Performance
16558.75William Dunham   San Jose, CA00:00:00.00 206162  106 Webcor/Alto Velo
17560.00Bo Hebenstreit   Campbell, CA00:00:00.00 196276  116 Webcor/Alto Velo
18561.25Marshall Roberts   Oakland, CA00:00:00.00 236807  133 eden bicycles
19Emilia FAHLIN   00:00:00.00  152 Team High Road - Women
20563.75David Porter   San Jose, CA00:00:00.00 126711  131 TBS Racing
21565.00Nichole Wangsgard   Cedar City, UT00:00:00.00 100972  146 Colavita / Sutter Home p/b Coo
22566.25John Fritz   Stockton, CA00:00:00.00 76287  109 Pacific State Bank Cycling Tea
23567.50Christopher Pillette   San Francisco, CA00:00:00.00 126127  148 Godspeed Courier
24568.75Daniel Katz   Goleta, CA00:00:00.00 227135  121 UC Santa Barbara
25570.00Shontell Gauthier   Austin, TX00:00:00.00 80726  111 Colavita / Sutter Home p/b Coo
27571.25Brian McCulloch   Yucaipa, CA00:00:00.00 169774  126 PossAbilities Elite
28Madeleine SANDIG   00:00:00.00  153 Team High Road - Women
29UNKNOWN RIDER   00:00:00.00  ??? 
30Anke WICHMANN   00:00:00.00  149 Team High Road - Women
31576.25Ivo Foster   Fresno, CA00:00:00.00 237002  154 Southern Sierra Cyclists
32577.50Kimberly Anderson   Santa Barbara, CA00:00:00.00 33201  151 Team High Road - Women
33578.75Michael Egan   West Sacrametno, CA00:00:00.00 124893  107 SGW/ City Bike Works
35580.00Sassan Golafshan   Palo Alto, CA00:00:00.00 169945  112 Form Fitness
36581.25wilson gorrell   Folsom, CA00:00:00.00 254622  113 Specialized/Sierra Nevada
37582.50Patrick Lee   San Luis Obispo, CA00:00:00.00 64504  124 SLO Nexus Cycling
38UNKNOWN RIDER   00:00:00.00  110 
39585.00Craig Peyron   Visalia, CA00:00:00.00 226382  130 sierra bicycle werks
40586.25Mark Faulkner   Pacific Grove, CA00:00:00.00 190171  108 Joselyn's
41587.50Steven Vickery   Chico, CA00:00:00.00 236946  140 InfoVista Cycling Team
42588.75Tyler Wertenbruch   Los Osos, CA00:00:00.00 155433  143 SLO Nexus - Arbor Home Mortgag
44590.00Bryan Hoadley   Danville, CA00:00:00.00 51644  117 Kovarus/ABTA
DNPJoe Molinari   Redwood City, CA00:00:00.00 24723  127 Cal Giant
DNPNicholas Agate   Albany, CA00:00:00.00 180146  100 
DNPScott Butler   Columbia, MO00:00:00.00 106701  102 Pacific State Bank Cycling Tea
DNPRodrigo Contreras   Stockton, CA00:00:00.00 236126  105 Pacific State Bank Cycling Tea
DNPTony Homes   Danville, CA00:00:00.00 210572  119 Wells Fargo Racing Team
DNPJason Kent   Walnut Creek, CA00:00:00.00 41826  122 Tieni Duro
DNPShawn Nelson   Altadena, CA00:00:00.00 25898  128 Santa Clarita Velo
DNPKori Seehafer   Eau Claire Wi00:00:00.00 77841  134 Colavita / Sutter Home p/b Coo
DNPJonathan Sinclair   Hollister, CA00:00:00.00 113194  136 SJBC/SugarCRM
DNPChad Stoehr   San Luis Obispo, CA00:00:00.00 139643  138 Blue Competition Cycles
DNPRobert White   Morgan Hill, CA00:00:00.00 97873  144 TBS Racing
DNPNelson Willhite   Sunnyvale, CA00:00:00.00 219614  145 Sierra Express/TONC
DNPMara Abbott   Boulder, CO 198735  150 Team High Road - Women
DNPBrandon Trafton   Sacramento, CA00:00:00.00 240033  155 California Giant Cycling

Men - Cat 4

 Place Points NameCity, StateTime USAC #BibTeam
1540.00Nathaniel English   Berkeley, CA00:00:00.00 258309  207 ZteaM
2541.92Justin Laue   Austin, TX00:00:00.00 264982  228 ZteaM
3543.85Marcus McKinnon   Thousand Oaks, CA00:00:00.00 237211  232 Alta Alpina Cycling Club
4545.77Gareth Feldstein   Bakersfield, CA00:00:00.00 240935  210 AIAGE Cycling Team
5547.69Zachary Griffin   Bakersfield, CA00:00:00.00 142398  214 AIAGE
6549.62Michael Grundmann   Sunnyvale, CA00:00:00.00 182738  215 Webcor/Alto Velo
7551.54Connor Spencer   San Francisco, CA00:00:00.00 256539  246 Freewheel Bike Shop
8553.46Peter Montoya   Fresno, CA00:00:00.00 222038  235 SSC/ACTION SPORTS
9555.38Tully Cashman   Mountain View, CA00:00:00.00 211520  205 Webcor/Alto Velo
10557.31Josh LaGrange   Bend, OR00:00:00.00 201330  224 Form Fitness
11559.23Chester Gillmore   Santa Barbara, CA00:00:00.00 269966  213 Platinum Performace Race Team
12561.15Jake Mestre   Reno, NV00:00:00.00 205653  234 University of Nevada Reno Cycl
13563.08Peter Lanik   Ashburn, VA00:00:00.00 226531  225 Action Sports/SSC Cycling Team
14565.00George Ciordas   Fresno, CA00:00:00.00 264605  206 Action Sports/SSC
15UNKNOWN RIDER   00:00:00.00  250 
17568.85Brian Krall   Davis, CA00:00:00.00 156347  223 Davis Bike Club
18570.77Tim Butler   Clovis, CA00:00:00.00 239746  204 Sierra Pacific Racing
19572.69Bart Boma   Del Rio00:00:00.00 113241  202 Travis Hawks
20574.62Daniel Farinha   San Jose, CA00:00:00.00 240558  208 SJBC/SugarCRM
21576.54Maksym Fatyga   Isla Vista, CA00:00:00.00 254358  209 UC - Santa Barbara Cycling
22578.46James McLennan   Washoe Valley, NV00:00:00.00 231448  233 UNR
23580.38Darren Rich   Visalia, CA00:00:00.00 114347  239 Sierra Bicycle Werks
24582.31Raj Singh   San Jose, CA00:00:00.00 265000  243 SJBC/SugarCRM
25584.23Sean Smith   Lafayette, CA00:00:00.00 190825  245 Synergy-Taleo
26586.15Mark Herynk   Redwood City, CA00:00:00.00 157123  219 Webcor/Alto Velo
27588.08Ed Richardson   Livermore, CA00:00:00.00 272019  240 InfoVista/East Bay Cyclists
28590.00Rory Osbrink   Pleasanton, CA00:00:00.00 218676  237 Webcor/Alto Velo
DNPDaniel Felix   Fresno, CA00:00:00.00 255819  211 Action Sports/SSC Cycling Team
DNPBarrett Henson   San Luis Obispo, CA00:00:00.00 15881  218 Slo Nexus
DNPKalani Hines   San Francisco, CA00:00:00.00 219316  220 metromint cycling
DNPAlan Latta   San Luis Obispo, CA00:00:00.00 248400  227 rock solid cycling
DNPDavid Rous   Bakersfield, CA00:00:00.00 189872  242 AIAGE
DNPCaden Taylor   Tucson, AZ00:00:00.00 240890  247 form fitness
DNPSteven Woo   Los Altos, CA00:00:00.00 38840  249 Easton/SugarCRM/Specialized/LG

Men - Cat 4 - B

 Place Points NameCity, StateTime USAC #BibTeam
1Erik Waher   San Mateo, CA00:00:00.00 256887  251 NA
2Eddie Zhang   Los Gatos, CA00:00:00.00 257062  252 SJBC/SugarCRM
DNPAdam Hensley   Bakersfield, CA00:00:00.00 264830  250 AIAGE
DNPJason Turner   Redwood City, CA00:00:00.00 255158  253 Kovarus/ABTA
DNPChristopher Reardon   Concord, CA 255349  254 Tieni Duro
DNPMiguel Henderson   Alameda, CA 255335  255 Tieni Duro
DNPWill Skinner   Berkeley, CA 256915  256 Tieni Duro

Men - Cat 4/5 - Master - 35-99

 Place Points NameCity, StateTime USAC #BibTeam
1540.00Todd Manley   San Jose, CA00:00:00.00 253905  626 SJBC/SugarCRM
2541.47Matt Bokemeier   San Jose, CA00:00:00.00 254319  604 SJBC/SugarCRM
3542.94Yuval Rachmilevitz   Sunnyvale, CA00:00:00.00 233314  637 Webcor/Alto Velo
4544.41Kevin Kennedy   Danville, CA00:00:00.00 264239  622 Synergy-Taleo Racing
5545.88Dave Garcia   Dublin, CA00:00:00.00 161627  611 InfoVista Cycling Team
6547.35Jim Ivey   Salinas, CA00:00:00.00 240703  618 Don Chapin/ Monterey Bay Racin
7548.82Kevin Threm   Aptos, CA00:00:00.00 255687  645 NA
8550.29Graeme Macalister (1 - Cat4)   San Francisco, CA00:00:00.00 227221  625 NA
9551.76Paul Taylor   Brentwood, CA00:00:00.00 207281  644 Metromint
10553.24Jeremy Sparks   Aurora, CO00:00:00.00 246296  641 Eden Bicycles
11554.71Chris Soukup   Sunnyvale, CA00:00:00.00 225570  640 SJBC/SugarCRM
12556.18Gregory McKinney   Fresno, CA00:00:00.00 196950  627 Central Valley Cycling
13557.65david gagnon   Salinas, CA00:00:00.00 250142  610 Don Chapin/ Monterey Bay Racin
14559.12Douglas Miglaw   Fair Oaks, CA00:00:00.00 257772  629 Cycling-Training.com
15UNKNOWN RIDER   00:00:00.00  x48 
16562.06David Green   Berkeley, CA00:00:00.00 61932  613 FresnOakland
17563.53Paul Henderson   Livermore, CA00:00:00.00 254491  616 Now Direct
18565.00Steve Anderson   Monterey, CA00:00:00.00 236231  600 Velo Club Monterey
19566.47Victor Furr   Pleasanton, CA00:00:00.00 96225  609 Now Direct
20567.94Jeffery Chen-Harding   San Francisco00:00:00.00 277339  614 Dolce Vita Cycling
21569.41Russell Voss   Tracy, CA00:00:00.00 258026  649 Now Direct
22570.88Richard Silberg   Berkeley, CA00:00:00.00 219572  639 Dolce Vita Cycling
23572.35David Metzinger   Livermore, CA00:00:00.00 230083  628 Now Direct
24573.82Mark Nielsen (2 - Cat4)   Berkeley, CA00:00:00.00 233923  631 Touchstone Climbing
25575.29John Beaudry   Merced, CA00:00:00.00 239028  602 Stanislaus/Merlock Velo
26576.76Xeno Rasmusson   San Ramon, CA00:00:00.00 29197  638 InfoVista Cycling Team
27UNKNOWN RIDER   00:00:00.00  608 
28579.71Thomas Heise   Livermore, CA00:00:00.00 271843  615 Now Direct
29581.18Elias Lopez   Salinas, CA00:00:00.00 257350  624 Don Chapin MBRT
30582.65Donald Parsons   Pleasanton, CA00:00:00.00 254434  634 InfoVista Cycling Team
31584.12Ray Carrier   Tracy, CA00:00:00.00 204769  606 Now Direct
32585.59Raleigh Kay   Tracy, CA00:00:00.00 209395  621 Now Direct
33587.06Jeff Inkes (1 - Cat5)   Tracy, CA00:00:00.00 271899  617 NowDirect
34588.53Romeo Uriarte   Orinda, CA00:00:00.00 262503  647 Berkeley Bicycle Club
35590.00Rick Berry   Kingsburg, CA00:00:00.00 271131  603 Action Sports/SSC Racing Team
DNPAnthony Barbarite   Clovis, CA00:00:00.00 220082  601 central valley cycling
DNPEric Brouillette   Castro Valley, CA00:00:00.00 5009  605 Eden Bicycles Racing Team
DNPDavid Douglas   Pleasanton, CA00:00:00.00 195436  607 InfoVista Cycling Team
DNPWade Morgan   Fresno, CA00:00:00.00 238135  630 FresnOakland
DNPMatthew Potter (Cat4)   Fresno, CA00:00:00.00 236310  635 SSC/ Action Sports
DNPGuy Van Natta   Clovis, CA00:00:00.00 218823  648 Central Valley Cycling

Men - Cat 4/5 - Master B - 35-99

 Place Points NameCity, StateTime USAC #BibTeam
1540.00Russ Freeman   Clovis, CA00:00:00.00 129467  656 Spatdog.com
2550.00Lee Millon   Winters, CA00:00:00.00 254073  653 Davis Bike Club
3560.00Vince Spera (1 - Cat4)   Fresno00:00:00.00 33617  655 Central Valley Cycling
4570.00Francis Goldsberry   Sacramento, CA00:00:00.00 132927  651 Sacramento Golden Wheelmen
5580.00Edwin Graveline (1 - Cat5)   Fresno, CA00:00:00.00 257373  652 Rappoccino/Zavorek Ins/Tri-Spo
6590.00Lance Slaughter   Fresno, CA00:00:00.00 238392  654 Central Valley Cycling
DNPJon BOHANNAN   00:00:00.00  650 Sierra Bicycle Werks

Men - Cat 4/5 - Master - 45-99

 Place Points NameCity, StateTime USAC #BibTeam
1540.00Jim Huebner   Clovis, CA00:00:00.00 254019  716 Action Sports/Southern Sierra
2541.61Stefano Schiaffino   Pleasanton, CA00:00:00.00 257173  741 International Christian CC
3543.23Eric Brown   Sacramento, CA00:00:00.00 241658  702 Specialized/Sierra Nevada
4544.84Richard Burns   Folsom, CA00:00:00.00 255440  704 Specialized/Sierra Nevada
5546.45David Leece   San Luis Obispo, CA00:00:00.00 53397  722 Rock Solid Cyclery
6548.06Alan Weatherall   San Jose, CA00:00:00.00 233934  746 SJBC/SugarCRM
7549.68Allen Wulczynski   San Jose, CA00:00:00.00 271874  748 SJBC/SUGAR CRM
8551.29Alex Blease   San Jose, CA00:00:00.00 155963  701 TBS Racing Team
9552.90Peter Niday   Genoa, NV00:00:00.00 238468  729 Alta Alpina Cycling Club
10554.52Leonel Quinteros   San Francisco, CA00:00:00.00 141358  735 Synergy-Taleo
11556.13Randy Floyd   Newcastle, CA00:00:00.00 90079  708 NA
12557.74Peter Whitbeck (1 - Cat4)   Lafayette, CA00:00:00.00 75953  747 Synergy-Taleo Racing
13559.35Gary Griffin   Boulder Creek, CA00:00:00.00 254036  712 Team Santa Cruz (SCCCC)
14UNKNOWN RIDER   00:00:00.00  717 
15562.58George Knott   Clovis, CA00:00:00.00 19484  719 Central Valley Cycling
16564.19Gary Keno   Clovis, CA00:00:00.00 108816  718 central vally cycling
17565.81Robert Fusco   Livermore, CA00:00:00.00 264855  710 VSRT
18567.42Eugene Hart (2 - Cat4)   Merced, CA00:00:00.00 240023  714 Stanislaus/Merlock Velo
19569.03Larry Upthegrove   Antioch, CA00:00:00.00 195417  745 InfoVista Cycling Team
20570.65Scott Lewis   San Jose, CA00:00:00.00 166779  723 TBS Racing
21572.26Kevin McCarthy   Merced, CA00:00:00.00 23088  726 stanislaus/merlock velo
22573.87Steven Rosen (3 - Cat4)   Scotts Valley, CA00:00:00.00 264162  738 Team Santa Cruz / SCCCC
23UNKNOWN RIDER   00:00:00.00  ??? 
24577.10Joe Farinha   San Jose, CA00:00:00.00 205492  706 SJBC/SugarCRM
25578.71Patrick Logan   San Ramon, CA00:00:00.00 242583  724 Third Pillar
26580.32Brad Orsburn (1 - Cat5)   Pacific Grove, CA00:00:00.00 237825  730 Don Chapin Monterey Bay Racing
27581.94Robert Martinez   Lodi, CA00:00:00.00 22761  725 Rocket Sport Racing
28583.55Craig Foley   Santa Barbara, CA00:00:00.00 236493  709 cutters
29585.16John Hansen   Danville, CA00:00:00.00 113380  713 wells fargo racing team
30586.77Bernard Carroll (2 - Cat5)   San Leandro, CA00:00:00.00 138057  705 UNATTACHED
31588.39Matt Yaden   Danville, CA00:00:00.00 238250  749 Wells Fargo Racing Team
32590.00Mark Nichols   Alamo, CA00:00:00.00 83106  700 Wells Fargo
DNPFrancisco Gatdula   Lodi, CA00:00:00.00 111613  711 LUZVIMIN RACING TEAM
DNPStuart Kron (Cat4)   Pleasanton, CA00:00:00.00 237601  721 NA
DNPMark Pendleton (Cat4)   Martinez, CA00:00:00.00 242689  732 Wells Fargo Racing Team
DNPRonald Phillips (Cat5)   Atwater, CA00:00:00.00 256349  733 Stanislaus/Merlock Velo
DNPScott Riddle   San Jose, CA00:00:00.00 270475  736 SJBC/SugarCRM
DNPMark Robertson   Oakland, CA00:00:00.00 237380  737 Synergy-Taleo Racing
DNPPaul Ryan   San Ramon, CA00:00:00.00 112814  739 Synergy-Taleo
DNPTerry Ryan   Salinas, CA00:00:00.00 272216  740 NA
DNPWilliam Slade   Santa Maria, CA00:00:00.00 114607  742 Cutters
DNPLen Tabor   Hollister, CA00:00:00.00 125781  743 Don Chapin

Men - Cat 4/5 - Master B - 45-99

 Place Points NameCity, StateTime USAC #BibTeam
1540.00Bryan Buck   San Jose, CA00:00:00.00 141246  752 Ti2 Racing
2543.33Blake Reed   Grover Beach, CA00:00:00.00 29369  769 Unattached
3546.67John Christensen   Los Gatos, CA00:00:00.00 237247  753 SJBC/Sugar CRM
4550.00Edward Price   Aptos, CA00:00:00.00 84614  760 Team Bicycle Trip
5553.33Vladan Strbac   Scotts Valley, CA00:00:00.00 259261  763 Team Bicycle Trip
6556.67Joe Platin   Santa Cruz, CA00:00:00.00 256834  772 Team Bicycle Trip
7560.00Rino Barbagiovanni   Valencia, CA00:00:00.00 49110  751 Santa Clarita Velo
8Eric KNIGHT   00:00:00.00  767 Team Chicken Ranch
9566.67Edward Webb   Los Gatos, CA00:00:00.00 274020  765 SJBC/SugarCRM
10570.00John Pollard   Santa Cruz, CA00:00:00.00 48193  759 Team Bicycle Trip
11573.33Eddie Avedikian   Valencia, CA00:00:00.00 113531  750 santa clarita velo
12576.67Frederick Stamm   San Mateo, CA00:00:00.00 195461  762 Peninsula Velo/Kondra Systems
13580.00Philip Weintraub   Chico, CA00:00:00.00 61122  766 Chico Corsa
14Marc Hamlin   00:00:00.00  771 
15586.67Gary Belman (1 - Cat4)   Clovis, CA00:00:00.00 242180  768 Central Valley Cycling
16590.00Darrell Rich (1 - Cat5)   Three Rivers, CA00:00:00.00 274558  761 Sierra Bicycle Werks
DNPPeter Mehlitz   Milpitas, CA00:00:00.00 241434  755 NA
DNPSteve Nicade   00:00:00.00  773 

Men - Cat 5

 Place Points NameCity, StateTime USAC #BibTeam
1540.00Robert Amatelli   San Jose, CA00:00:00.00 270304  400 NA
2541.52Joseph Binder   San Diego, CA00:00:00.00 272181  404 Cal Poly Wheelmen
3543.03Michael Hutson   Bakersfield, CA00:00:00.00 179849  413 aiage
4544.55Gregory Sakzewski   Pacific Grove, CA00:00:00.00 270201  428 Don Chapin Monterey Bay Racing
5546.06Brent Malicote   Tulare, CA00:00:00.00 197937  415 NA
6547.58Steve Sharp   San Luis Obispo, CA00:00:00.00 272914  430 Rock Solid
7549.09Arthur Duberg   San Luis Obispo, CA00:00:00.00 258233  408 NA
8550.61Sunny Sandhu   Fresno, CA00:00:00.00 271787  437 Action Sports/SSC Racing Team
9552.12Patrick Piccolo   Oakland , CA00:00:00.00 263815  423 NA
10553.64mike durant   San Luis Obispo, CA00:00:00.00 273749  409 NA
11555.15Jeremy Stanley   Cazadero, CA00:00:00.00 278623  431 NA
12UNKNOWN RIDER   00:00:00.00  ??? 
13UNKNOWN RIDER   00:00:00.00  ??? 
14559.70Mark Polizzi   Austin, TX00:00:00.00 273630  424 unattached
15561.21Victor Mirzayan   Fresno, CA00:00:00.00 262853  419 spatdog
16562.73Carlos Castillejo   Orcutt, CA00:00:00.00 257164  405 Cutters Racing Team
17564.24Eric Popiel   Santa Monica, CA00:00:00.00 274037  425 Unattached
18565.76Ross Trenary   Oakland, CA00:00:00.00 255259  435 NA
19ryan PRICE   00:00:00.00  426 NA
20568.79Robert Napieralski   Springville, CA00:00:00.00 271499  420 Action Sports/SSC Racing Team
21570.30David Belman   Clovis, CA00:00:00.00 206297  403 Central Valley Cycling
22571.82Timothy Pattison   Santa Barbara, CA00:00:00.00 256738  422 NA
23573.33Joseph Fronteras   Visalia, CA00:00:00.00 262145  411 Action Sports/SSC Racing Team
24Danny Napolez   00:00:00.00  438 
25576.36Dan Switlick   Granite Bay, CA00:00:00.00 271280  434 NA
26577.88Scott Andron   San Francisco, CA00:00:00.00 268339  401 cl-ZteaM
27Toby COSTELLO   00:00:00.00  406 NA
28580.91Rafael Neiman   Loomis, CA00:00:00.00 270869  421 NA
29Simon STEPHENS   00:00:00.00  432 Action Sports/SSC
30Todd STOEHR   00:00:00.00  433 Escalade
31585.45Jason Jones   San Francisco, CA00:00:00.00 253925  414 velvet
32586.97Douglas Miller   San Jose, CA00:00:00.00 273511  418 TBS Racing
33588.48Bret Roberts   San Francisco, CA00:00:00.00 271061  427 Easton/SugarCRM/Specialized
34590.00Corey Scobie   Pleasanton, CA00:00:00.00 272080  429 InfoVista Cycling Team
DNPJohn Echeveste   Goleta, CA00:00:00.00 268389  410 UC - Santa Barbara Cycling
DNPCarlos Hernandez   Solvang, CA00:00:00.00 233680  412 Cutters Racing Team
DNPJeff Malnick   Monterey, CA00:00:00.00 260198  416 NA
DNPKyle McElroy   Morgan Hill, CA00:00:00.00 271349  417 

Men - Junior - JR - 10/18/08

 Place Points NameCity, StateTime USAC #BibTeam
1540.00Andreas Freund   Berkeley, CA00:00:00.00 222320  802 Davis Bike Club
2565.00Alexander Collins   Livermore, CA00:00:00.00 273030  808 
3590.00Alexander Freund   Davis, CA00:00:00.00 222322  801 Davis Bike Club
DNPZach Eurich   Fresno, CA00:00:00.00 270781  800 central valley cycling
DNPAlexander Gee   Danville, CA00:00:00.00 219922  804 Tieni Duro

Women - Pro/Cat 1/2

 Place Points NameCity, StateTime USAC #BibTeam
1Ryan Hostetter (1 - Cat2)   San Luis Obispo, CA00:00:00.00 191767  955 Unattached
2UNKNOWN RIDER   00:00:00.00  950 

Women - Cat 3

 Place Points NameCity, StateTime USAC #BibTeam
1540.00Jennie Phillips   Danville, CA00:00:00.00 203722  825 Wells Fargo Race Team
2546.25Sue Lovecchio   Pacific Grove, CA00:00:00.00 205235  827 
3552.50Emily Church   Sausalito, CA00:00:00.00 224026  822 CRC/Poggio
4558.75Kim Wik   Fremont, CA00:00:00.00 254251  824 Code3Racing
5565.00Marian Jamison   Gloucester, MA00:00:00.00 230034  826 Reno Wheelmen
6571.25Shari Raymond   Hayward, CA00:00:00.00 200415  823 InfoVista Cycling Team
7577.50Laura Sanchez   Salinas, CA00:00:00.00 169832  828 Velo Bella-Kona
8583.75Soni Andreini Poulsen   Arnold, CA00:00:00.00 235758  821 Velo Bella
9UNKNOWN RIDER   00:00:00.00  800 

Women - Cat 4

 Place Points NameCity, StateTime USAC #BibTeam
1540.00Kristy Gough   Oakland, CA00:00:00.00 274487  905 Third Pillar
2548.33Kadria Catalano   Sand City, CA00:00:00.00 405074  908 Don Chapin Team
3556.67Joan Case   Pleasant Hill, CA00:00:00.00 242557  900 Left Coast Racing Team
4565.00April Hamlin   El Dorado Hills, CA00:00:00.00 266244  913 Velo Bella
6573.33Jeanine Bates   San Francisco, CA00:00:00.00 195292  910 Velo Girls
7581.67Katherine Hamilton   Fairfax, CA00:00:00.00 253544  909 Maco
8Debbie Newell   00:00:00.00  906 
DNPKeila Classen   Palo Alto, CA00:00:00.00 239635  901 International Christian Cyclin
DNPJasmin Parsons   Pleasanton, CA00:00:00.00 254437  903 InfoVista
DNPBrittany Thibault   Paso Robles, CA00:00:00.00 274667  907 Action Sports ?SSC Racing
DNPCarla Cosentino   Los Gatos, CA 255734  911 Code 3 Racing
DNPMichael M     912 
DNPdevon kratzer   Fresno, CA 274772  914 Action Sports

Women - Master - MR - 35-99

 Place Points NameCity, StateTime USAC #BibTeam
1Elizabeth Castillejo   Orcutt, CA00:00:00.00 254385  976 Femmes Fatales
2Bobbi King   Santa Barbara, CA00:00:00.00 167267  977 Femmes Fatales
DNPJoana PATTISON   00:00:00.00  978 

Report missing or incorrect license numbers

Volkswagen
SpyCUORESierra NevadaShimanoBonk BreakerUSACDF
UCI USA Cycling is the official governing body for all disciplines of competitive cycling in the United States. The 501c3, membership-based organization aims both to achieve sustained success in international cycling competition and to grow competitive cycling in America while delivering an exceptional customer experience.
View Children's Online Privacy Protection Policy
US Olympic Committee